Location: Unspecified
(50.7693°N, 0.0000°E)
Time: 21:58:20
(UTC+00:00)

Transit 2A - Pass Details

Date: 02 July 2019
Orbit: 594 x 964 km, 66.7° (Epoch: 20 July)

Event Time Altitude Azimuth Distance (km) Brightness Sun altitude
Rises 23:19:12 0° 242° (WSW) 3,645 9.3 -15.6°
Reaches altitude 10° 23:21:56 10° 249° (WSW) 2,694 8.7 -15.6°
Maximum altitude 23:27:57 43° 319° (NW) 1,292 7.6 -15.8°
Drops below altitude 10° 23:33:41 10° 31° (NNE) 2,568 9.5 -15.9°
Sets 23:36:15 0° 38° (NE) 3,459 10.1 -16.0°
